Lexington Weather

Lexington, Massachusetts, USA

56°F
10/22/2020 7:56pm 
  • Lexington Conditions: Mostly cloudy
  • Temperature: 55.8°F / 13.2°CColder 0.3°F than last hour.
  • Dew Point: 54.3°FDecreased 0.2°Fsince last hour.
  • Relative Humidity: 95%Increased 1.0% since last hour.
  • Wind: Wind from NW NW Calm, 10-min avg: 1 mph, gust: 3 mph
  • Barometer: 30.22 in Steady
  • Visibility: 7 miles
  • Rain Today: 0.00 in
  •   
Southeast Middlesex County - Special Weather Statement
 - SEE ALL NEARBY ALERTS -

Regional Weather Roundup
for Boston / Norton, MA

        
000
ASUS41 KBOX 200504
RWRBOX

REGIONAL WEATHER ROUNDUP
NATIONAL WEATHER SERVICE BOSTON/NORTON MA
100 AM EDT TUE OCT 20 2020

NOTE:  "FAIR" INDICATES FEW OR NO CLOUDS BELOW 12,000 FEET WITH NO 
SIGNIFICANT WEATHER AND/OR OBSTRUCTIONS TO VISIBILITY.

MAZALL-200600-
EASTERN MASSACHUSETTS
  
CITY           SKY/WX    TMP DP  RH WIND       PRES   REMARKS
BOSTON         MOCLDY    50  48  93 S6        30.31S                  
BEVERLY        MOCLDY    52  49  89 CALM      30.30F                  
LAWRENCE       PTCLDY    52  48  86 CALM      30.31F                  
BEDFORD        PTCLDY    50  47  89 CALM      30.28F                  
BLUE HILL        N/A     50  48  93 S9        30.29S                  
NORWOOD        CLEAR     46  43  89 CALM      30.30F                  
MARSHFIELD     PTCLDY    45  45 100 CALM      30.31S                  
PLYMOUTH       CLEAR     45  42  89 CALM      30.32S                  
TAUNTON        CLEAR     43  41  93 CALM      30.31F                  
NEW BEDFORD    PTCLDY    42  41  96 CALM      30.32S                  
$$

MAZALL-200600-
CAPE COD AND THE ISLANDS
  
CITY           SKY/WX    TMP DP  RH WIND       PRES   REMARKS
FALMOUTH       PTCLDY    43  43 100 CALM      30.32S                  
HYANNIS        CLOUDY    48  47  96 CALM      30.30S                  
CHATHAM        CLOUDY    56  52  86 CALM      30.32F                  
PROVINCETOWN   PTCLDY    42  40  92 S3        30.32S                  
NANTUCKET      CLOUDY   N/A N/A N/A E6        30.30F                  
MARTHAS VNYRD  MOCLDY    45  42  89 CALM      30.32R                  
$$
 
MAZALL-200600-
CENTRAL AND WESTERN MASSACHUSETTS
  
CITY           SKY/WX    TMP DP  RH WIND       PRES   REMARKS
WORCESTER      MOCLDY    52  49  89 S8        30.28F                  
FITCHBURG      PTCLDY    50  48  93 CALM      30.29F                  
ORANGE         MOCLDY    51  50  96 CALM      30.29F                  
SPRINGFIELD    CLOUDY    52  49  90 S3        30.27F                  
WESTFIELD      PTCLDY    53  52  96 S6        30.28S                  
NORTH ADAMS    CLOUDY    57  50  77 CALM      30.25S                  
PITTSFIELD     CLOUDY    55  50  83 CALM      30.26R                  
$$
 
RIZALL-200600-
RHODE ISLAND
  
CITY           SKY/WX    TMP DP  RH WIND       PRES   REMARKS
PROVIDENCE     CLEAR     50  48  93 W3        30.32S                  
NEWPORT        CLEAR     48  48 100 CALM      30.31S FOG              
BLOCK ISLAND   CLEAR     53  50  89 SE3       30.32R                  
SMITHFIELD     PTCLDY    50  50 100 CALM        N/A                   
WESTERLY       PTCLDY    47  44  90 CALM      30.32R                  
$$
 
CTZALL-200600-
CONNECTICUT
  
CITY           SKY/WX    TMP DP  RH WIND       PRES   REMARKS
BRADLEY INTL   MOCLDY    53  50  89 S7        30.27F                  
HARTFORD       CLEAR     53  50  89 CALM      30.28F                  
BRIDGEPORT     PTCLDY    59  54  83 SE7       30.28F                  
DANBURY        PTCLDY    51  50  96 CALM      30.30S                  
GROTON         PTCLDY    50  48  93 NE6       30.30F                  
NEW HAVEN      PTCLDY    61  56  83 SE8       30.28F                  
CHESTER        FAIR      54  54 100 S6        30.28F                  
MERIDEN        PTCLDY    49  47  93 CALM      30.28F                  
WILLIMANTIC    PTCLDY    48  46  93 CALM      30.29F                  
OXFORD         PTCLDY    52  52 100 S5        30.29F                  
$$

MEZ002-015-021-024-NHZ003-005-008-011-012-014-VTZ005-008-200600-
NORTHERN NEW ENGLAND
  
CITY           SKY/WX    TMP DP  RH WIND       PRES   REMARKS
PORTLAND ME    CLOUDY    49  48  97 CALM      30.31F                  
BANGOR ME      LGT RAIN  48  46  93 S3        30.31F                  
CONCORD NH     MOCLDY    51  45  79 SE3       30.28F                  
MANCHESTER NH  LGT RAIN  53  47  79 SE5       30.27F                  
NASHUA NH      PTCLDY    51  50  96 SE3       30.28F                  
PORTSMOUTH NH  CLOUDY    51  48  90 E3        30.28                   
JAFFREY NH     PTCLDY    51  47  86 SW5       30.28F                  
KEENE NH       PTCLDY    50  49  96 CALM      30.28S                  
BURLINGTON VT  CLOUDY    57  52  83 S10       30.17S                  
MT. WASHINGTON FOG       36  36 100 SW32        N/A  VSB 1/16WCI  22  
$$

NYZ052-076-200600-
EASTERN NEW YORK
  
CITY           SKY/WX    TMP DP  RH WIND       PRES   REMARKS
ALBANY         CLOUDY    55  52  89 SE13      30.22F                  
NEW YORK CITY  MOCLDY    60  54  80 SE7       30.26F                  
$$
 
ANZALL-200600-
MARINE OBSERVATIONS
  
STATION/POSITION TIME  TEMP    WIND        PRES    VSBY  WAVE
                       AIR SEA DIR/SP/G                  HT/PER
                 (UTC) (F)     (DEG/KT/KT) (MB)    (MI)  (FT/S)
BOSTON BUOY      0450   56 58  170/  8/  8 1025.4F         2/ 8
BUZZARDS BAY     0400          150/  8/  8 1027.3F
NANTUCKET SOUND  0440      61  160/  4/  6   N/A
MASS BAY-STELLWA 0404   56 56  180/  8/  8 1025.9F  1 7/8  3/11
ISLE OF SHOALS   NOT AVBL
S OF BLOCK IS    0426      63                N/A           3/10
$$

......................KEY.........................
  SKY/WX - SKY CONDITION/PRESENT WEATHER
  TMP    - TEMPERATURE IN FAHRENHEIT
  DWPT   - DEWPOINT IN FAHRENHEIT
  RH     - RELATIVE HUMIDITY IN PERCENT
  WIND   - DIRECTION AND SPEED IN MPH
  PRES   - MEAN SEA LEVEL PRESSURE IN INCHES OF HG
  WCI    - WIND CHILL INDEX
  VSB    - VISIBILITY IN MILES
  HX     - HEAT INDEX
  TC     - TEMPERATURE IN CELSIUS
  VRB    - VARIABLE WIND DIRECTION
  N/A    - NOT AVAILABLE
  
      

Other recent Regional Weather Roundups

Thu Oct 22, 7:05pm

Thu Oct 22, 6:04pm

Thu Oct 22, 5:04pm

Thu Oct 22, 4:05pm

Thu Oct 22, 3:04pm

Thu Oct 22, 2:05pm

Thu Oct 22, 1:04pm

Thu Oct 22, 12:04pm

Thu Oct 22, 11:04am

Thu Oct 22, 10:05am

Thu Oct 22, 9:04am

Thu Oct 22, 8:05am

Thu Oct 22, 7:04am

Thu Oct 22, 6:04am

Thu Oct 22, 5:04am

Thu Oct 22, 4:04am

Thu Oct 22, 3:04am

Thu Oct 22, 2:04am

Thu Oct 22, 1:04am

Thu Oct 22, 12:04am

Wed Oct 21, 11:05pm

Wed Oct 21, 10:04pm

Wed Oct 21, 9:04pm

Wed Oct 21, 8:04pm

Wed Oct 21, 7:04pm

Wed Oct 21, 6:04pm

Wed Oct 21, 5:05pm

Wed Oct 21, 4:04pm

Wed Oct 21, 3:04pm

Wed Oct 21, 2:05pm

Wed Oct 21, 1:04pm

Wed Oct 21, 12:04pm

Wed Oct 21, 11:04am

Wed Oct 21, 10:04am

Wed Oct 21, 9:04am

Wed Oct 21, 8:04am

Wed Oct 21, 7:04am

Wed Oct 21, 6:04am

Wed Oct 21, 5:04am

Wed Oct 21, 4:04am

Wed Oct 21, 3:04am

Wed Oct 21, 2:04am

Wed Oct 21, 1:04am

Wed Oct 21, 12:04am

Tue Oct 20, 11:05pm

Tue Oct 20, 10:04pm

Tue Oct 20, 9:04pm

Tue Oct 20, 8:05pm

Tue Oct 20, 7:04pm

Tue Oct 20, 6:04pm

Tue Oct 20, 5:05pm

Tue Oct 20, 4:04pm

Tue Oct 20, 3:05pm

Tue Oct 20, 2:07pm

Tue Oct 20, 1:04pm

Tue Oct 20, 12:04pm

Tue Oct 20, 11:04am

Tue Oct 20, 10:05am

Tue Oct 20, 9:04am

Tue Oct 20, 8:04am

Tue Oct 20, 7:04am

Tue Oct 20, 6:04am

Tue Oct 20, 5:04am

Tue Oct 20, 4:04am

Tue Oct 20, 3:04am

Tue Oct 20, 2:04am

Tue Oct 20, 12:04am

Mon Oct 19, 11:04pm

Mon Oct 19, 10:04pm

Mon Oct 19, 9:04pm

Mon Oct 19, 8:04pm

Mon Oct 19, 7:04pm

Mon Oct 19, 6:04pm

Mon Oct 19, 5:04pm

Mon Oct 19, 4:04pm

Mon Oct 19, 3:04pm

Mon Oct 19, 2:04pm

Mon Oct 19, 1:05pm

Mon Oct 19, 12:04pm

Mon Oct 19, 11:04am

Mon Oct 19, 10:04am

Mon Oct 19, 9:04am

Mon Oct 19, 8:04am

Mon Oct 19, 7:04am

Mon Oct 19, 6:04am

Mon Oct 19, 5:04am

Mon Oct 19, 4:04am

Mon Oct 19, 3:04am

Mon Oct 19, 2:04am

Mon Oct 19, 1:04am

Mon Oct 19, 12:05am

Sun Oct 18, 11:04pm

Sun Oct 18, 10:04pm

Sun Oct 18, 9:04pm

Sun Oct 18, 8:04pm

Sun Oct 18, 7:05pm

Sun Oct 18, 6:04pm

Sun Oct 18, 5:05pm

Sun Oct 18, 4:05pm

Sun Oct 18, 3:04pm

Sun Oct 18, 2:05pm

Sun Oct 18, 1:04pm

Sun Oct 18, 12:04pm

Sun Oct 18, 11:04am

Sun Oct 18, 10:04am

Sun Oct 18, 9:04am

Sun Oct 18, 8:04am

Sun Oct 18, 7:04am

Sun Oct 18, 6:04am

Sun Oct 18, 5:04am

Sun Oct 18, 4:04am

Sun Oct 18, 3:04am

Sun Oct 18, 2:04am

Sun Oct 18, 1:04am

Sun Oct 18, 12:04am

Sat Oct 17, 11:05pm

Sat Oct 17, 10:04pm

Sat Oct 17, 9:04pm

Sat Oct 17, 8:04pm

Sat Oct 17, 7:04pm

Sat Oct 17, 6:04pm

Sat Oct 17, 5:05pm

Sat Oct 17, 4:04pm

Sat Oct 17, 3:04pm

Sat Oct 17, 2:05pm

Sat Oct 17, 1:05pm

Sat Oct 17, 12:04pm

Sat Oct 17, 11:05am

Sat Oct 17, 10:04am

Sat Oct 17, 9:04am

Sat Oct 17, 8:04am

Sat Oct 17, 7:04am

Sat Oct 17, 6:04am

Sat Oct 17, 5:04am

Sat Oct 17, 4:04am

Sat Oct 17, 3:04am

Sat Oct 17, 2:04am

Sat Oct 17, 1:05am

Sat Oct 17, 12:04am

Fri Oct 16, 11:05pm

Fri Oct 16, 10:04pm

Fri Oct 16, 9:05pm

Fri Oct 16, 8:04pm

Fri Oct 16, 7:05pm

Fri Oct 16, 6:04pm

Fri Oct 16, 5:04pm

Fri Oct 16, 4:05pm

Fri Oct 16, 3:04pm

Fri Oct 16, 2:04pm

Fri Oct 16, 1:04pm

Fri Oct 16, 12:04pm

Fri Oct 16, 11:05am

Fri Oct 16, 10:04am

Fri Oct 16, 9:04am

Fri Oct 16, 8:04am

Fri Oct 16, 7:04am

Fri Oct 16, 6:04am

Fri Oct 16, 5:04am

Fri Oct 16, 4:04am

Fri Oct 16, 3:04am

Fri Oct 16, 2:04am

Fri Oct 16, 1:04am

Fri Oct 16, 12:04am

Thu Oct 15, 11:04pm

Thu Oct 15, 10:04pm

Thu Oct 15, 9:05pm

Thu Oct 15, 8:04pm

Meta data:

ID: a3454907-5d70-4d17-90fd-343e3880d565
Link: https://api.weather.gov/products/a3454907-5d70-4d17-90fd-343e3880d565